Location: Buckeye Ditch
(40.9104°N, 122.9517°W)
Time: 13:19:50
(UTC+00:00)

deb Explorer IX - All Passes

Search period start: 18 May 2025 00:00
Search period end: 28 May 2025 00:00
Orbit: 386 x 450 km, 38.6° (Epoch: 05 May)

Date Brightness Start Highest point End Pass type
(mag) Time Alt. Az. Time Alt. Az. Time Alt. Az.
18 May - 12:40:15 10° S 12:41:32 12° SSE 12:42:50 10° SE daylight
18 May - 14:14:58 10° SW 14:17:52 37° SSE 14:20:44 10° E daylight
18 May - 15:51:27 10° W 15:54:28 55° S 15:57:27 10° ESE daylight
18 May - 17:28:19 10° W 17:31:00 29° SSW 17:33:40 10° SE daylight
19 May - 13:11:28 10° SW 13:14:07 26° SSE 13:16:45 10° ESE daylight
19 May - 14:47:35 10° WSW 14:50:35 54° S 14:53:33 10° E daylight
19 May - 16:24:14 10° W 16:27:06 40° SSW 16:29:56 10° ESE daylight
19 May - 18:01:49 10° WSW 18:03:21 13° SSW 18:04:53 10° S daylight
20 May - 12:07:16 10° SSW 12:09:22 17° SSE 12:11:28 10° ESE visible
20 May - 13:42:42 10° WSW 13:45:38 45° S 13:48:32 10° E daylight
20 May - 15:19:10 10° W 15:22:07 50° S 15:25:01 10° ESE daylight
20 May - 16:56:05 10° WSW 16:58:24 21° SSW 17:00:44 10° SSE daylight
21 May - 11:03:31 10° SSE 11:03:37 10° SSE 11:03:43 10° SSE visible
21 May - 12:36:51 10° SW 12:39:40 33° SSE 12:42:27 10° E daylight
21 May - 14:13:04 10° W 14:16:01 55° S 14:18:57 10° ESE daylight
21 May - 15:49:39 10° W 15:52:22 31° SSW 15:55:02 10° SE daylight
22 May - 11:30:12 10° SSW 11:32:41 22° SSE 11:35:08 10° ESE visible
22 May - 13:05:55 10° WSW 13:08:53 51° S 13:11:48 10° E daylight
22 May - 14:42:20 10° W 14:45:12 44° S 14:48:01 10° ESE daylight
22 May - 16:19:24 10° WSW 16:21:17 16° SSW 16:23:09 10° SSE daylight
23 May - 10:23:04 10° S 10:24:42 14° SSE 10:26:20 10° ESE visible
23 May - 11:57:48 10° WSW 12:00:42 39° SSE 12:03:34 10° E visible
23 May - 13:33:59 10° W 13:36:57 54° S 13:39:51 10° ESE daylight
23 May - 15:10:34 10° WSW 15:13:05 25° SSW 15:15:34 10° SE daylight
24 May - 10:48:49 10° SW 10:51:30 27° SSE 10:54:10 10° E visible
24 May - 12:24:37 10° WSW 12:27:37 54° S 12:30:34 10° E daylight
24 May - 14:00:57 10° W 14:03:47 38° SSW 14:06:32 10° ESE daylight
24 May - 15:38:20 10° SW 15:39:38 12° SSW 15:40:54 10° S daylight
25 May - 09:39:12 10° SSW 09:41:19 17° SSE 09:43:25 10° ESE visible
25 May - 11:14:15 10° WSW 11:17:15 44° S 11:20:10 10° E visible
25 May - 12:50:23 10° W 12:53:21 51° S 12:56:15 10° ESE daylight
25 May - 14:26:55 10° WSW 14:29:18 22° SSW 14:31:37 10° SSE daylight
26 May - 10:03:00 10° SW 10:05:50 31° SSE 10:08:38 10° E visible
26 May - 11:38:47 10° WSW 11:41:50 55° S 11:44:48 10° E visible
26 May - 13:15:03 10° W 13:17:51 35° SSW 13:20:34 10° SE daylight
26 May - 14:53:06 10° SW 14:53:29 10° SSW 14:53:52 10° SSW daylight
27 May - 08:51:05 10° SSW 08:53:27 19° SSE 08:55:48 10° ESE night (unlit)
27 May - 10:26:13 10° WSW 10:29:16 48° S 10:32:15 10° E visible
27 May - 12:02:15 10° W 12:05:15 49° S 12:08:09 10° ESE visible
27 May - 13:38:46 10° WSW 13:41:01 19° SSW 13:43:13 10° SSE daylight
